Weather in Potma

Russia / Republic of Mordovia     54°07′03″N   42°54′19″E
temp.,
°C
wind,
m/s
gust,
m/s
humid.,
%
clouds,
%
prec.,
mm/h
press.,
hPa
HPBL,
m
17 august, wed
wed1700:00+18e41156100 0.0 1021199
03:00+16e41062100 0.0 1021172
06:00+17e41058100 0.0 1021213
09:00+24ese6938100 0.0 1020501
12:00+28ese6729100 0.0 10191448
15:00+29ese5627100 0.0 10182028
18:00+27e5934100 0.0 1018514
21:00+22ese3945100 0.0 1019214
18 august, thu
thu1800:00+22e61343100 0.0 1017347
03:00+19ene4950100 0.0 1018233
06:00+19e51255100 0.0 1018369
09:00+25e6938100 0.0 1018666
12:00+26e6933100 0.0 10181173
15:00+26ene61137100 0.0 1017817
18:00+26e71137100 0.0 1018866
21:00+23ene71545100 0.0 1019639
19 august, fri
fri1900:00+21e81648100 0.0 1019569
03:00+20e71556100 0.0 1020586
06:00+19e71256100 0.0 1021558
09:00+21e81242100 0.0 1022765
12:00+26ese91134100 0.0 10231768
15:00+27ese8934100 0.0 10242367
18:00+25ese693786 0.0 10241729
21:00+22ese71340100 0.0 1025637
20 august, sat
sat2000:00+21ese71437100 0.0 1026580
03:00+20ese71429100 0.0 1027500
06:00+18ese51229100 0.0 1028476
09:00+22se692591 0.0 1028797
12:00+26se7819100 0.0 10281573
15:00+27se7817100 0.0 10271906
18:00+25se582082 0.0 1026438
21:00+17ese473459 0.0 102793
21 august, sun
sun2100:00+16ese493853 0.0 1027125
03:00+14ese484268 0.0 1027121
06:00+14ese494419 0.0 1028151
09:00+23ese562757 0.0 1027581
12:00+27ese572187 0.0 10261858
15:00+29se572398 0.0 10242287
18:00+27ese363087 0.0 1023202
21:00+20se3444100 0.0 102446